User: anonymous   Login
Location: Carrer del Canonge
(41.4901°N, 2.2931°E)
Time: 02:52:21
(UTC+00:00)
Language:

Cosmos 2263 Rocket - Orbit

View from above orbital plane
View from above orbital plane
View from above satellite
View from above satellite

Ground track
Ground track

The orbit data is extracted from the following two-line orbital elements,

1 22803U 93059B   20339.62208212 -.00000233  00000-0 -92296-4 0  9993
2 22803  70.9899 100.6495 0019605 258.5166 101.3756 14.16827590407667
Epoch (UTC): 04 December 2020 14:55:47
Eccentricity: 0.0019605
inclination: 70.9899°
perigee height: 822 km
apogee height: 850 km
right ascension of ascending node: 100.6495°
argument of perigee: 258.5166°
revolutions per day: 14.16827590
mean anomaly at epoch: 101.3756°
orbit number at epoch: 40766

The dashed part of the orbit path shows where the satellite is in the earth's shadow,  

DLR